Regional Weather Roundup
Issued by NWS

Home | Current Version | Previous Version | Graphics & Text | Print | Product List | Glossary On
Versions: 1 2 3 4 5 6 7 8 9 10 11 12 13 14 15 16 17 18 19 20 21 22 23 24 25 26 27 28
000
ASUS45 KCYS 212310
RWRWY

WYOMING REGIONAL WEATHER ROUNDUP
NATIONAL WEATHER SERVICE CHEYENNE WY
500 PM MDT SUN MAY 21 2017

NOTE:  "FAIR" INDICATES FEW OR NO CLOUDS BELOW 12,000 FEET
WITH NO SIGNIFICANT WEATHER AND/OR OBSTRUCTIONS TO VISIBILITY.

WYZ001-220000-
YELLOWSTONE NATIONAL PARK

CITY           SKY/WX    TMP DP  RH WIND       PRES   REMARKS
LK YELLOWSTONE   N/A     53  17  24 VRB5G17   30.31F
W YELLOWSTONE  NOT AVBL

$$
WYZ002>013-054>058-071-098>099-220000-
NORTHERN WYOMING

CITY           SKY/WX    TMP DP  RH WIND       PRES   REMARKS
JACKSON        MOSUNNY   61  25  25 N13       30.23R
CODY           FAIR      62  28  27 N13G21    30.22S
GREYBULL       FAIR      68  26  20 N14G25    30.14F
WORLAND        FAIR      66  33  29 N14G24    30.15F
SHERIDAN       FAIR      62  37  39 NW20      30.17F
BUFFALO        FAIR      60  32  34 N25G39    30.18S
GILLETTE       FAIR      59  37  44 NW21      30.13S
HULETT         FAIR      55  41  58 W6        30.13F
NEWCASTLE      LGT RAIN  46  41  81 N8G24     30.14R

$$
WYZ014>020-022>026-101>103-220000-
CENTRAL WYOMING

CITY           SKY/WX    TMP DP  RH WIND       PRES   REMARKS
BIG PINEY      PTSUNNY   56  34  43 E12       30.22F
PINEDALE       FAIR      55  28  35 CALM      30.22S
DUBOIS         NOT AVBL
LANDER         FAIR      56  35  45 W3        30.21S
RIVERTON       FAIR      56  42  59 NW9       30.22R
CASPER         CLOUDY    54  40  59 N6        30.20F
DOUGLAS        PTSUNNY   58  37  45 N21       30.17F

$$
WYZ021-027>030-104>119-220000-
SOUTHERN WYOMING

CITY           SKY/WX    TMP DP  RH WIND       PRES   REMARKS
EVANSTON       FAIR      57  39  51 N18G24    30.23S
KEMMERER         N/A     57  32  38 NW13G18   30.25F
FORT BRIDGER   MOCLDY    54  37  52 N17G23    30.26S
ROCK SPRINGS   PTSUNNY   55  39  54 E13G22    30.23R
RAWLINS        CLOUDY    54  38  54 SE6       30.23S
LARAMIE        LGT RAIN  45  32  60 W8        30.22F
CHEYENNE       LGT RAIN  45  40  82 W7        30.22S
TORRINGTON     FAIR      61  41  47 W15       30.13S
PINE BLUFFS    MOCLDY    54  41  62 N18       30.19R

$$




USA.gov is the U.S. government's official web portal to all federal, state and local government web resources and services.